EN

Hourly Weather Parede

Today, 18 April, Sunday

Time Temperature Precipitation Wind Pressure Humidity
00:00 +14°C° 0 mm 2 mps 764 mmHg 66%
01:00 +14°C° 0 mm 2 mps 763 mmHg 66%
02:00 +14°C° 0 mm 2 mps 763 mmHg 65%
03:00 +14°C° 0 mm 1 mps 763 mmHg 65%
04:00 +14°C° 0 mm 1 mps 763 mmHg 65%
05:00 +14°C° 0 mm 1 mps 763 mmHg 65%
06:00 +15°C° 0 mm 1 mps 764 mmHg 61%
07:00 +16°C° 0 mm 1 mps 764 mmHg 57%
08:00 +18°C° 0 mm 2 mps 764 mmHg 52%
09:00 +20°C° 0 mm 1 mps 764 mmHg 49%
10:00 +22°C° 0 mm 1 mps 764 mmHg 45%
11:00 +23°C° 0 mm 1 mps 764 mmHg 41%
12:00 +23°C° 0 mm 2 mps 764 mmHg 42%
13:00 +23°C° 0 mm 2 mps 764 mmHg 42%
14:00 +22°C° 0 mm 3 mps 764 mmHg 43%
15:00 +21°C° 0 mm 3 mps 764 mmHg 48%
16:00 +20°C° 0 mm 4 mps 764 mmHg 54%
17:00 +19°C° 0 mm 4 mps 764 mmHg 59%
18:00 +18°C° 0 mm 4 mps 764 mmHg 63%
19:00 +17°C° 0 mm 3 mps 765 mmHg 67%
20:00 +14°C° 0 mm 3 mps 765 mmHg 71%
21:00 +14°C° 0 mm 3 mps 765 mmHg 70%
22:00 +14°C° 0 mm 3 mps 764 mmHg 69%
23:00 +15°C° 0 mm 2 mps 764 mmHg 68%

Tomorrow, 19 April, Monday

Time Temperature Precipitation Wind Pressure Humidity
00:00 +14°C° 0 mm 3 mps 764 mmHg 71%
01:00 +13°C° 0 mm 3 mps 764 mmHg 73%
02:00 +13°C° 0 mm 3 mps 764 mmHg 76%
03:00 +13°C° 0 mm 3 mps 764 mmHg 78%
04:00 +12°C° 0 mm 3 mps 764 mmHg 80%
05:00 +12°C° 0 mm 3 mps 763 mmHg 82%
06:00 +14°C° 0 mm 3 mps 764 mmHg 73%
07:00 +16°C° 0 mm 3 mps 764 mmHg 64%
08:00 +18°C° 0 mm 4 mps 764 mmHg 55%
09:00 +19°C° 0 mm 4 mps 764 mmHg 50%
10:00 +20°C° 0 mm 4 mps 764 mmHg 46%
11:00 +22°C° 0 mm 4 mps 764 mmHg 41%
12:00 +21°C° 0 mm 4 mps 764 mmHg 42%
13:00 +21°C° 0 mm 5 mps 763 mmHg 42%
14:00 +21°C° 0 mm 5 mps 763 mmHg 42%
15:00 +20°C° 0 mm 5 mps 763 mmHg 49%
16:00 +19°C° 0 mm 5 mps 763 mmHg 55%
17:00 +17°C° 0 mm 5 mps 763 mmHg 62%
18:00 +17°C° 0 mm 4 mps 763 mmHg 68%
19:00 +15°C° 0 mm 4 mps 763 mmHg 75%
20:00 +14°C° 0 mm 3 mps 764 mmHg 82%
21:00 +13°C° 0 mm 3 mps 763 mmHg 84%
22:00 +13°C° 0 mm 3 mps 763 mmHg 86%
23:00 +13°C° 0 mm 3 mps 763 mmHg 89%

Day after tomorrow, 20 April, Tuesday

Time Temperature Precipitation Wind Pressure Humidity
00:00 +13°C° 0 mm 3 mps 763 mmHg 90%
01:00 +13°C° 0 mm 3 mps 763 mmHg 92%
02:00 +13°C° 0 mm 3 mps 762 mmHg 94%
03:00 +13°C° 0 mm 4 mps 762 mmHg 92%
04:00 +13°C° 0 mm 4 mps 762 mmHg 89%
05:00 +14°C° 0 mm 5 mps 762 mmHg 87%
06:00 +15°C° 0 mm 4 mps 762 mmHg 81%
07:00 +17°C° 0 mm 4 mps 762 mmHg 76%
08:00 +18°C° 0 mm 4 mps 762 mmHg 71%
09:00 +19°C° 0 mm 5 mps 762 mmHg 67%
10:00 +20°C° 0 mm 5 mps 762 mmHg 63%
11:00 +20°C° 0 mm 5 mps 762 mmHg 59%
12:00 +20°C° 0 mm 5 mps 762 mmHg 59%
13:00 +20°C° 0 mm 6 mps 762 mmHg 58%
14:00 +20°C° 0 mm 6 mps 761 mmHg 58%
15:00 +20°C° 0 mm 6 mps 761 mmHg 62%
16:00 +19°C° 0 mm 6 mps 761 mmHg 66%
17:00 +17°C° 0 mm 6 mps 761 mmHg 70%
18:00 +16°C° 0 mm 6 mps 762 mmHg 76%
19:00 +15°C° 0 mm 5 mps 762 mmHg 82%
20:00 +14°C° 0 mm 5 mps 762 mmHg 87%
21:00 +14°C° 0 mm 5 mps 762 mmHg 88%
22:00 +14°C° 0 mm 5 mps 762 mmHg 89%
23:00 +14°C° 0 mm 5 mps 761 mmHg 90%

21 April, Wednesday

Time Temperature Precipitation Wind Pressure Humidity
00:00 +13°C° 0 mm 4 mps 761 mmHg 91%
01:00 +13°C° 0 mm 4 mps 761 mmHg 91%
02:00 +13°C° 0 mm 4 mps 761 mmHg 92%
03:00 +13°C° 0 mm 4 mps 761 mmHg 92%
04:00 +13°C° 0 mm 4 mps 760 mmHg 92%
05:00 +13°C° 0 mm 4 mps 760 mmHg 92%
06:00 +14°C° 0 mm 4 mps 761 mmHg 85%
07:00 +15°C° 0 mm 4 mps 761 mmHg 79%
08:00 +17°C° 0 mm 4 mps 761 mmHg 73%
09:00 +18°C° 0 mm 4 mps 761 mmHg 69%
10:00 +19°C° 0 mm 3 mps 761 mmHg 65%
11:00 +19°C° 0 mm 3 mps 761 mmHg 61%
12:00 +19°C° 0 mm 3 mps 761 mmHg 63%
13:00 +18°C° 0 mm 4 mps 761 mmHg 65%
14:00 +18°C° 0 mm 4 mps 761 mmHg 67%
15:00 +18°C° 0 mm 4 mps 761 mmHg 70%
16:00 +17°C° 0 mm 4 mps 761 mmHg 73%
17:00 +17°C° 0 mm 3 mps 761 mmHg 76%
18:00 +16°C° 0 mm 3 mps 761 mmHg 81%
19:00 +16°C° 0 mm 2 mps 762 mmHg 87%
20:00 +15°C° 0 mm 2 mps 762 mmHg 92%
21:00 +15°C° 0 mm 2 mps 762 mmHg 93%
22:00 +15°C° 0 mm 2 mps 762 mmHg 93%
23:00 +15°C° 0 mm 2 mps 762 mmHg 94%

22 April, Thursday

Time Temperature Precipitation Wind Pressure Humidity
00:00 +15°C° 0 mm 2 mps 761 mmHg 94%
01:00 +15°C° 0 mm 2 mps 761 mmHg 95%
02:00 +15°C° 0 mm 2 mps 761 mmHg 95%
03:00 +15°C° 0 mm 2 mps 761 mmHg 96%
04:00 +15°C° 0 mm 2 mps 760 mmHg 96%
05:00 +15°C° 0 mm 2 mps 760 mmHg 97%
06:00 +16°C° 0 mm 3 mps 760 mmHg 91%
07:00 +17°C° 0 mm 4 mps 761 mmHg 85%
08:00 +17°C° 0 mm 5 mps 761 mmHg 80%
09:00 +19°C° 0.1 mm 5 mps 760 mmHg 77%
10:00 +19°C° 0.1 mm 6 mps 760 mmHg 75%
11:00 +19°C° 0.1 mm 6 mps 760 mmHg 73%
12:00 +20°C° 0 mm 7 mps 760 mmHg 73%
13:00 +20°C° 0 mm 7 mps 759 mmHg 72%
14:00 +20°C° 0 mm 7 mps 759 mmHg 71%
15:00 +20°C° 0 mm 7 mps 759 mmHg 75%
16:00 +18°C° 0 mm 7 mps 759 mmHg 78%
17:00 +18°C° 0 mm 7 mps 758 mmHg 81%
18:00 +17°C° 0 mm 8 mps 759 mmHg 83%
19:00 +17°C° 0 mm 8 mps 759 mmHg 86%
20:00 +17°C° 0 mm 8 mps 759 mmHg 88%
21:00 +16°C° 0.9 mm 8 mps 759 mmHg 90%
22:00 +16°C° 0.9 mm 8 mps 758 mmHg 93%
23:00 +16°C° 0.9 mm 8 mps 758 mmHg 95%

23 April, Friday

Time Temperature Precipitation Wind Pressure Humidity
00:00 +16°C° 2.4 mm 7 mps 758 mmHg 96%
01:00 +16°C° 2.4 mm 7 mps 758 mmHg 96%
02:00 +16°C° 2.4 mm 6 mps 758 mmHg 97%
03:00 +15°C° 0.3 mm 6 mps 758 mmHg 96%
04:00 +15°C° 0.3 mm 5 mps 758 mmHg 95%
05:00 +14°C° 0.3 mm 5 mps 759 mmHg 94%
06:00 +15°C° 0 mm 4 mps 759 mmHg 86%
07:00 +17°C° 0 mm 3 mps 760 mmHg 79%
08:00 +18°C° 0 mm 2 mps 761 mmHg 71%
09:00 +19°C° 0 mm 3 mps 761 mmHg 67%
10:00 +20°C° 0 mm 3 mps 761 mmHg 62%
11:00 +21°C° 0 mm 3 mps 761 mmHg 58%
12:00 +21°C° 0 mm 4 mps 761 mmHg 58%
13:00 +21°C° 0 mm 4 mps 761 mmHg 58%
14:00 +20°C° 0 mm 5 mps 761 mmHg 58%
15:00 +20°C° 0 mm 4 mps 761 mmHg 60%
16:00 +19°C° 0 mm 4 mps 761 mmHg 63%
17:00 +18°C° 0 mm 3 mps 762 mmHg 65%
18:00 +17°C° 0 mm 3 mps 762 mmHg 72%
19:00 +16°C° 0 mm 3 mps 762 mmHg 79%
20:00 +14°C° 0 mm 3 mps 763 mmHg 86%
21:00 +13°C° 0 mm 3 mps 763 mmHg 86%
22:00 +14°C° 0 mm 2 mps 762 mmHg 86%
23:00 +14°C° 0 mm 2 mps 762 mmHg 86%
Show more

We Need Your Consent

Meteoprog and our Service Providers may store and access personal data such as cookies, device identifiers or other similar technologies on your device and process such data to personalise content and ads, as well as provide social media features and to analyse the traffic.

  • Store and/or access information on your device

    Cookies, device identifiers or other information can be stored or accessed on your device for the purposes indicated above.

  • Personalised ads and content, ad and content measurement, audience insights, and products development

    Ads and content can be personalised based on a profile. More data can be added to better personalise ads and content. Ad and content performance can be measured. Insights about the audience who saw the ads and content can be derived. Such data can be used to develop or improve user’s experience, systems and software.

By clicking ‘I Agree’ you will allow the use of indicated cookies, device identifiers, web beacons or other similar technologies. Your settings can be changed in the browser on your device.

For certain purposes, legitimate interests may be relied on, rather than consent. You can read more about this in our Privacy and Cookie Policy.